| time (UTC) | temp F | wind direction | speed knots | gust knots | rain 1hr in | rain 24hr in | rain mn in | humidity % | barometer mb |
| 20260504081553 | 51 | 222 | 2.6 | 5.2 | 0.00 | 0.00 | 0.00 | 66 | 1000.2 |
| 20260504080109 | 51 | 217 | 3.5 | 5.2 | 0.00 | 0.00 | 0.00 | 65 | 1000.4 |
| 20260504050012 | 57 | 171 | 3.5 | 7.0 | 0.00 | 0.00 | 0.00 | 52 | 1002.2 |
| 20260504044511 | 57 | 153 | 3.5 | 7.0 | 0.00 | 0.00 | 0.00 | 51 | 1002.3 |
| 20260504043010 | 58 | 155 | 2.6 | 6.1 | 0.00 | 0.00 | 0.00 | 49 | 1002.5 |
| 20260504041509 | 59 | 120 | 4.3 | 6.1 | 0.00 | 0.00 | 0.00 | 46 | 1002.9 |
| 20260504040017 | 60 | 360 | 3.5 | 6.1 | 0.00 | 0.00 | 0.00 | 44 | 1003.2 |
| 20260504034507 | 60 | 127 | 2.6 | 5.2 | 0.00 | 0.00 | 0.00 | 44 | 1003.1 |
| 20260504033004 | 60 | 114 | 3.5 | 6.1 | 0.00 | 0.00 | 0.00 | 45 | 1003.0 |
| 20260504031503 | 62 | 170 | 1.7 | 2.6 | 0.00 | 0.00 | 0.00 | 42 | 1003.3 |
| 20260504030002 | 63 | 161 | 0.0 | 2.6 | 0.00 | 0.00 | 0.00 | 41 | 1003.6 |
| 20260504024502 | 63 | 163 | 0.9 | 2.6 | 0.00 | 0.00 | 0.00 | 41 | 1003.6 |
| 20260504023104 | 63 | 162 | 1.7 | 2.6 | 0.00 | 0.00 | 0.00 | 40 | 1003.6 |
| 20260504021600 | 64 | 162 | 1.7 | 2.6 | 0.00 | 0.00 | 0.00 | 39 | 1003.6 |
| 20260504021502 | 64 | 163 | 1.7 | 3.5 | 0.00 | 0.00 | 0.00 | 39 | 1003.6 |
| 20260504014607 | 65 | 157 | 1.7 | 2.6 | 0.00 | 0.00 | 0.00 | 38 | 1003.6 |
| 20260504013106 | 66 | 176 | 1.7 | 5.2 | 0.00 | 0.00 | 0.00 | 38 | 1003.6 |
| 20260504011558 | 68 | 279 | 0.0 | 1.7 | 0.00 | 0.00 | 0.00 | 36 | 1003.8 |
| 20260504010056 | 68 | 281 | 0.9 | 2.6 | 0.00 | 0.00 | 0.00 | 35 | 1004.0 |
| 20260504004555 | 68 | 282 | 0.9 | 5.2 | 0.00 | 0.00 | 0.00 | 34 | 1004.3 |
| 20260504003102 | 69 | 290 | 3.5 | 7.0 | 0.00 | 0.00 | 0.00 | 33 | 1004.5 |
| 20260504001605 | 68 | 281 | 6.1 | 8.7 | 0.00 | 0.00 | 0.00 | 33 | 1004.8 |
| 20260504000105 | 69 | 285 | 4.3 | 9.6 | 0.00 | 0.00 | 0.00 | 32 | 1005.1 |
| 20260503234546 | 69 | 282 | 5.2 | 14.8 | 0.00 | 0.00 | 0.00 | 31 | 1005.3 |
| 20260503233046 | 70 | 263 | 5.2 | 13.0 | 0.00 | 0.00 | 0.00 | 30 | 1005.5 |
| 20260503231544 | 70 | 275 | 7.0 | 15.6 | 0.00 | 0.00 | 0.00 | 29 | 1005.4 |
| 20260503230043 | 70 | 248 | 6.1 | 14.8 | 0.00 | 0.00 | 0.00 | 29 | 1005.5 |
| 20260503224545 | 70 | 224 | 7.0 | 14.8 | 0.00 | 0.00 | 0.00 | 29 | 1005.5 |
| 20260503223041 | 71 | 253 | 7.0 | 11.3 | 0.00 | 0.00 | 0.00 | 29 | 1005.7 |
| 20260503221542 | 70 | 296 | 7.8 | 13.9 | 0.00 | 0.00 | 0.00 | 30 | 1005.8 |
| 20260503220036 | 70 | 319 | 9.6 | 16.5 | 0.00 | 0.00 | 0.00 | 29 | 1005.9 |
| 20260503214534 | 70 | 279 | 5.2 | 14.8 | 0.00 | 0.00 | 0.00 | 31 | 1006.1 |
| 20260503213031 | 70 | 276 | 4.3 | 8.7 | 0.00 | 0.00 | 0.00 | 32 | 1006.4 |
| 20260503211531 | 70 | 252 | 6.1 | 13.9 | 0.00 | 0.00 | 0.00 | 32 | 1006.7 |
| 20260503210027 | 70 | 250 | 8.7 | 15.6 | 0.00 | 0.00 | 0.00 | 31 | 1006.9 |
| 20260503204529 | 70 | 286 | 8.7 | 14.8 | 0.00 | 0.00 | 0.00 | 31 | 1007.2 |
| 20260503203024 | 69 | 277 | 5.2 | 15.6 | 0.00 | 0.00 | 0.00 | 33 | 1007.5 |
| 20260503201521 | 69 | 334 | 6.1 | 14.8 | 0.00 | 0.00 | 0.00 | 33 | 1007.6 |
| 20260503200021 | 69 | 293 | 8.7 | 15.6 | 0.00 | 0.00 | 0.00 | 32 | 1007.8 |
| 20260503194519 | 68 | 286 | 3.5 | 13.9 | 0.00 | 0.00 | 0.00 | 33 | 1007.9 |
| 20260503193035 | 69 | 327 | 7.8 | 11.3 | 0.00 | 0.00 | 0.00 | 33 | 1008.0 |
| 20260503191518 | 68 | 5 | 5.2 | 13.0 | 0.00 | 0.00 | 0.00 | 35 | 1008.2 |
| 20260503190022 | 68 | 262 | 3.5 | 13.0 | 0.00 | 0.00 | 0.00 | 34 | 1008.4 |
| 20260503184522 | 68 | 324 | 6.1 | 16.5 | 0.00 | 0.00 | 0.00 | 33 | 1008.5 |
| 20260503183014 | 68 | 298 | 10.4 | 16.5 | 0.00 | 0.00 | 0.00 | 31 | 1008.8 |
| 20260503181514 | 67 | 315 | 6.1 | 13.9 | 0.00 | 0.00 | 0.00 | 35 | 1009.0 |
| 20260503180018 | 67 | 5 | 7.0 | 14.8 | 0.00 | 0.00 | 0.00 | 35 | 1009.3 |
| 20260503174511 | 66 | 263 | 4.3 | 12.2 | 0.00 | 0.00 | 0.00 | 39 | 1009.6 |
| 20260503173021 | 67 | 302 | 4.3 | 10.4 | 0.00 | 0.00 | 0.00 | 36 | 1009.7 |
| 20260503171517 | 65 | 314 | 0.9 | 7.0 | 0.00 | 0.00 | 0.00 | 41 | 1010.0 |